Regional Weather Roundup
Issued by NWS

Home | Current Version | Previous Version | Graphics & Text | Print | Product List | Glossary On
Versions: 1 2 3 4 5 6 7 8 9 10 11 12 13 14 15 16 17 18 19 20 21 22 23 24 25 26 27 28 29 30 31 32 33 34 35 36 37 38 39 40 41 42 43 44 45 46 47 48 49 50
000
ASUS43 KIND 101709
RWRIN

WEATHER ROUNDUP FOR INDIANA
NATIONAL WEATHER SERVICE INDIANAPOLIS IN
100 PM EDT THU JUL 10 2014

NOTE: "FAIR" INDICATES FEW OR NO CLOUDS BELOW 12,000 FEET WITH NO
SIGNIFICANT WEATHER AND/OR OBSTRUCTIONS TO VISIBILITY.

* - STATION DOES NOT REPORT WEATHER SUCH AS PRECIPITATION OR FOG.

+ - STATION NOT QUALITY CONTROLLED BY THE NATIONAL WEATHER SERVICE.
    USE DATA WITH CAUTION...ESPECIALLY DEWPOINT AND RELATIVE
    HUMIDITY OBSERVATIONS.

INZ001>003-010>013-019-020-101800-
NORTHWEST INDIANA

CITY           SKY/WX    TMP DP  RH WIND       PRES   REMARKS
GARY /AIRPORT/ MOSUNNY   73  57  56 NE8       30.20
KNOX *+        MOSUNNY   73  55  53 CALM      30.19S
LA PORTE +     PTSUNNY   71  53  51 N9        30.21R
MICHIGAN CITY+ SUNNY     72  48  43 N7        30.21S
MONTICELLO +   SUNNY     74  54  48 CALM      30.19S
RENSSELAER +   SUNNY     73  54  49 N8        30.20S
VALPARAISO     MOSUNNY   75  54  47 VRB7      30.20S

$$

LMZ046-743>745-101800-
SOUTHERN LAKE MICHIGAN

STATION/POSITION TIME  TEMP WIND        PRES
                       AIR  DIR/SP/G
                 (UTC) (F)  (DEG/KT/KT) (MB)
MICHIGAN CITY    1700   68   10/  8/  9   N/A

$$

INZ004-005-014>016-021>024-101800-
NORTH CENTRAL INDIANA

CITY           SKY/WX    TMP DP  RH WIND       PRES   REMARKS
ELKHART        SUNNY     72  48  43 N7        30.21R
GOSHEN         PTSUNNY   71  51  49 VRB5      30.20R
LOGANSPORT +   SUNNY     73  48  40 NW7       30.19F
PERU/GRISSOM   SUNNY     74  55  50 NE12      30.19S HAZE
ROCHESTER +    SUNNY     77  52  41 N7        30.20S
SOUTH BEND     MOSUNNY   74  54  49 N6        30.20S
WARSAW +       MOSUNNY   72  52  49 N6        30.20R

$$

INZ006>009-017-018-025>027-101800-
NORTHEAST INDIANA

CITY           SKY/WX    TMP DP  RH WIND       PRES   REMARKS
ANGOLA *+      MOSUNNY   73  54  49 CALM      30.19S
AUBURN +       SUNNY     73  46  38 W6        30.19S
FORT WAYNE     MOSUNNY   74  53  48 N5        30.19R
HUNTINGTON +   SUNNY     73  52  47 N6        30.18S

$$

INZ028-029-035-036-043>045-051>053-101800-
WEST CENTRAL INDIANA

CITY           SKY/WX    TMP DP  RH WIND       PRES   REMARKS
GREENCASTLE +  SUNNY     73  55  53 NE5       30.19R
LAFAYETTE      SUNNY     74  53  48 N9        30.19R
TERRE HAUTE    MOSUNNY   76  58  53 N9        30.17R

$$

INZ030>032-037>040-046>048-054>057-064-065-101800-
CENTRAL INDIANA

CITY           SKY/WX    TMP DP  RH WIND       PRES   REMARKS
ANDERSON       MOSUNNY   73  54  49 N12       30.19S
CP ATTERBURY + MOSUNNY   75  59  57 NE5       30.17R
COLUMBUS       PTSUNNY   77  59  53 MISG      30.16R
FRANKFORT +    SUNNY     75  54  46 CALM      30.20
INDIANAPOLIS   MOSUNNY   76  54  46 CALM      30.16S
-EAGLE CREEK   SUNNY     75  53  46 NW12      30.17S
KOKOMO *+      SUNNY     77  54  44 NE7       30.19S
MARION +       SUNNY     73  49  42 NE3       30.19S
MT COMFORT *+  SUNNY     77  59  53 N8        30.18S
SHELBYVILLE    SUNNY     78  60  53 N7        30.16S
ZIONSVILLE +   SUNNY     74  52  45 NE6       30.19S

$$

INZ033-034-041-042-049-050-058-059-101800-
EAST CENTRAL INDIANA

CITY           SKY/WX    TMP DP  RH WIND       PRES   REMARKS
MUNCIE         SUNNY     75  53  46 N8        30.18S

$$

INZ060-061-067>069-081>083-085>088-101800-
SOUTHWEST INDIANA

CITY           SKY/WX    TMP DP  RH WIND       PRES   REMARKS
EVANSVILLE     MOSUNNY   82  56  40 MISG      30.14R
HUNTINGBURG *+ SUNNY     81  61  50 N7        30.14S
WASHINGTON +   SUNNY     79  60  52 N5        30.14S

$$

INZ062-063-066-070>080-084-089>092-101800-
SOUTH CENTRAL AND SOUTHEAST INDIANA

CITY           SKY/WX    TMP DP  RH WIND       PRES   REMARKS
BLOOMINGTON    MOSUNNY   80  56  43 VRB6      30.16S

$$



USA.gov is the U.S. government's official web portal to all federal, state and local government web resources and services.